Regional Weather Roundup
Issued by NWS Mt. Holly, NJ

Home | Current Version | Previous Version | Text Only | Print | Product List | Glossary On
Versions: 1 2 3 4 5 6 7 8 9 10 11 12 13 14 15 16 17 18 19 20 21 22 23 24 25 26 27 28 29 30 31 32 33 34 35 36 37 38 39 40 41 42 43 44 45 46 47 48 49 50
000
ASUS41 KPHI 292010
RWRPHI

REGIONAL WEATHER ROUNDUP
NATIONAL WEATHER SERVICE MOUNT HOLLY NJ
400 PM EDT TUE JUL 29 2014

NOTE:  "FAIR" INDICATES FEW OR NO CLOUDS BELOW 12,000 FEET WITH NO
SIGNIFICANT WEATHER AND/OR OBSTRUCTIONS TO VISIBILITY.

 * = STATION DOES NOT REPORT PRECIPITATION (E.G. RAIN, SNOW, ETC.)
        OR FOG.

NJZ015>026-292100-
SOUTHERN NEW JERSEY

CITY           SKY/WX    TMP DP  RH WIND       PRES   REMARKS
POMONA         CLOUDY    76  56  49 VRB3      29.91R
RIO GRANDE*    PTSUNNY   75  46  35 W6        29.93S
MILLVILLE      CLOUDY    74  55  51 S3        29.91S
WRIGHTSTOWN    PTSUNNY   74  54  49 VRB5      29.89R
MOUNT HOLLY    CLOUDY    74  52  46 VRB3      29.91R
TRENTON        CLOUDY    73  51  46 NW8       29.91R

$$
NJZ001>014-292100-
NORTHERN NEW JERSEY

CITY           SKY/WX    TMP DP  RH WIND       PRES   REMARKS
SUSSEX         CLOUDY    72  51  47 NW6       29.91R
ANDOVER*         N/A     71  51  49 CALM      29.92R
MORRISTOWN     PTSUNNY   75  50  41 NW7       29.90R
NEWARK         PTSUNNY   76  47  35 W12       29.89R
TETERBORO      PTSUNNY   77  50  38 NW9       29.88R
CALDWELL       MOSUNNY   75  48  38 NW7       29.90R
SOMERVILLE     CLOUDY    75  49  39 NW7       29.89R
ALLAIRE*       PTSUNNY   75  54  46 W10       29.91R
TOMS RIVER*    CLOUDY    75  52  43 W6        29.91S

$$
PAZ043-044-047-054-055-060>062-066>071-292100-
EASTERN PENNSYLVANIA

CITY           SKY/WX    TMP DP  RH WIND       PRES   REMARKS
PHILADELPHIA   CLOUDY    75  53  46 VRB3      29.92R
NORTH PHILA    CLOUDY    75  51  43 W7        29.93R
BLUE BELL      MOSUNNY   72  54  53 W3        29.91S
DOYLESTOWN     CLOUDY    72  53  51 VRB3      29.91R
QUAKERTOWN*    CLOUDY    72  54  53 W5        29.93S
POTTSTOWN      CLOUDY    71  53  52 VRB3      29.93S
LANCASTER      PTSUNNY   70  55  59 W8        29.93S
COATESVILLE    CLOUDY    70  70 100 NW6       29.94R
READING        CLOUDY    73  51  46 NW6       29.92R
ALLENTOWN      CLOUDY    73  50  44 N6        29.91R
MOUNT POCONO   CLOUDY    65  47  52 NW8       29.95R
HAZLETON       PTSUNNY   64  46  52 NW6       29.98S
WILKES BARRE   CLOUDY    70  48  45 NW9       29.94R

$$
DEZALL-MDZ008-012-015-019-020-292100-
DELAWARE AND EASTERN MARYLAND

CITY           SKY/WX    TMP DP  RH WIND       PRES   REMARKS
WILMINGTON     CLOUDY    73  55  53 NW6       29.93R
DOVER          PTSUNNY   74  59  59 W6        29.90S
GEORGETOWN     MOSUNNY   77  51  40 W10       29.92S
EASTON         MOSUNNY   75  54  46 NW9       29.98
PATUXENT       MOSUNNY   77  49  37 W14G23    29.93S
OCEAN CITY     MOSUNNY   74  61  63 S8        29.93S
WALLOPS ISLAND SUNNY     79  52  38 NW10      29.93S
CAMBRIDGE      MOSUNNY   77  50  38 W8G16     29.94R

$$
PAZ001-021-NYZ056-072-MDZ011-DCZ001-292100-
OTHER NEARBY LOCATIONS

CITY           SKY/WX    TMP DP  RH WIND       PRES   REMARKS
HARRISBURG     CLOUDY    72  53  51 N13       29.93R
STATE COLLEGE  CLOUDY    64  50  59 W10       29.98R
WILLIAMSPORT   CLOUDY    70  47  43 NW8       29.93S
BINGHAMTON     CLOUDY    63  48  58 W9        29.95R
NEW YORK CITY  MOSUNNY   76  50  40 VRB5      29.91R
BALTIMORE      PTSUNNY   75  50  41 W12G17    29.93R
WASHINGTON DC  MOSUNNY   76  48  37 N10G20    29.95S

$$



USA.gov is the U.S. government's official web portal to all federal, state and local government web resources and services.